OBJECT AP, 68453

Orbit data source: Space-Track

You're viewing an Uncataloged Satellite

Recently launched and/or uncataloged satellites may have evolving metadata. Metadata may include but not limited to: Owner, Maufacturer, Bus, Motor, and Mission.

OBJECT AP, 68453 is a satellite in SSO that was launched on Mon, 30 Mar 2026 UTC via an FALCON 9 launch vehicle from the Air Force Western Test Range (AFWTR). Unknown objects in Earth's orbit typically refer to objects detected orbiting the Earth but have not yet been identified or cataloged. These objects could be anything from previously untracked satellites, spent rocket stages, debris from satellite collisions, or even natural meteoroids temporarily captured by Earth's gravity.

Loading next visibility...
Identifier
68453, 2026-067AP
Orbit
SSO
Country
Flag of TBDTBD
Related business
None
Manufacturer
Unknown
Mission
Operational spacecraft
Bus & Motor
Unknown
Mass
Unknown
Launch date (UTC)
2026-03-30 (1 month ago)
Launch vehicle
FALCON 9
Launch site
Air Force Western Test Range (AFWTR)
Object type
Unknown
Shape & HBR
Unknown shape, 1.1 m
Radar Cross Section
RCS unknown

Expand to show TLE details & history
Last TLE update: 11 hours ago

TLE from 11 hours ago
0 OBJECT AP
1 68453U 26067AP  26127.14118634  .00005975  00000-0  29502-3 0  9990
2 68453  97.4537  86.2224 0003432 129.5582 230.5956 15.18245953  5717
Epoch: 2026-05-07T03:23Z
TLE epoch observation values (Epoch: 2026-05-07T03:23:18.499Z)
Latitude
-0.00001°
Longitude
170.40373°
Altitude
515.73 km
Speed
7.605 km/s
True Right ascension
05h 44m 53s
True Declination
0° 00' 00"
Sunlit
Object was in daylight at epoch
Visualization orbit readout
Latitude
Unknown
Longitude
Unknown
Altitude
Unknown
Speed
Unknown
Apparent Right ascension
Unknown
Apparent Declination
Unknown
Sunlit
N/A
Visualization observer readout
Local Sidereal Time
22:04:25
Azimuth
Unknown
Elevation
Unknown
Doppler factor
Unknown
Orbital elements
Apogee altitude
510.475 km
Perigee altitude
505.749 km
Semi-major axis
6,886.249 km
Eccentricity
0.00034
Inclination
97.4537°
RAAN
86.2224°
Arg. of periapsis
129.5582°
True anomaly
230.56522°
Mean anomaly
230.5956°
Eccentric anomaly
230.58041°
Mean motion
3.79812 °/min
Orbital period
94.78 mins
BSTAR
0.00029502
Loading maneuver chart data...
Computing Atmospheric mass density...
Loading historical data...
Loading historical data...
Loading historical data...
Loading historical data...
Loading historical data...
Loading historical data...
Loading historical data...

Documentation

Showing up to 5 results
|